Weather Roundup
Issued by NWS Chicago, IL

Home | Current Version | Previous Version | Graphics & Text | Print | Product List | Glossary On
Versions: 1 2 3 4 5 6 7 8 9 10 11 12 13 14 15 16 17 18 19 20 21 22 23 24 25 26 27 28 29 30 31 32 33 34 35 36 37 38 39 40 41 42 43 44 45 46 47 48 49 50
000
NZUS59 KLOT 210206
HRRLOT

CHICAGO AREA WEATHER ROUNDUP
NATIONAL WEATHER SERVICE CHICAGO/ROMEOVILLE IL
900 PM CDT WED AUG 20 2014

NOTE: "FAIR" INDICATES FEW OR NO CLOUDS BELOW 12,000 FEET WITH NO
SIGNIFICANT WEATHER AND/OR OBSTRUCTIONS TO VISIBILITY.

* THESE STATIONS ARE NOT UNDER NWS QUALITY CONTROL. THEY ALSO MAY NOT
  REPORT WEATHER SUCH AS PRECIPITATION OR FOG.

ILZ005-006-012>014-019>023-210300-
NORTHEAST ILLINOIS

CITY           SKY/WX    TMP DP  RH WIND       PRES   REMARKS
OHARE          PTCLDY    78  67  68 W10       29.91R HX  80
MIDWAY         PTCLDY    80  71  74 SW13      29.91R HX  84
AURORA         CLEAR     72  66  81 W5        29.94R
LANSING*       CLEAR     76  70  81 SW12      29.93R
JOLIET*        CLEAR     73  65  75 W5        29.94R
WAUKEGAN       MOCLDY    72  68  87 NE3       29.90R
DUPAGE AIRPORT PTCLDY    75  69  81 W12       29.93R
WHEELING       PTCLDY    81  67  62 SW9       29.93R HX  83
KANKAKEE*      PTCLDY    69  67  94 CALM      29.95R
MORRIS*        CLEAR     70  67  90 NW5       29.93R
LEWIS AIRPORT* CLEAR     73  65  77 W8        29.94R
NORTHERLY IS     N/A     80  68  66 W8          N/A  HX  83
$$

WIZ051-052-058>065-066-070>072-210300-
SOUTHEAST WISCONSIN

CITY           SKY/WX    TMP DP  RH WIND       PRES   REMARKS
MILWAUKEE      MOCLDY    68  64  87 E3        29.92R
KENOSHA*       CLOUDY    70  68  93 NE5       29.92R FOG
RACINE*        PTCLDY    70  65  84 E5        29.93R
BURLINGTON     CLOUDY    71  68  88 NE3       29.92R
WAUKESHA       PTCLDY    66  63  88 E5        29.93R
WEST BEND      PTCLDY    64  61  88 CALM      29.94R
$$

INZ001>003-010>013-019-020-210300-
NORTHWEST INDIANA

CITY           SKY/WX    TMP DP  RH WIND       PRES   REMARKS
GARY*          CLEAR     79  70  73 SW8       29.91R HX  81
MICHIGAN CITY* NOT AVBL
RENSSELAER*    NOT AVBL
VALPARAISO     PTCLDY    75  69  81 SW7       29.93R
$$

LMZ740>746-210300-
SOUTHERN LAKE MICHIGAN

STATION/POSITION TIME  SKY/WX   TEMP WIND        PRES    VSBY
                                AIR  DIR/SP/G
                 (UTC)          (F)  (DEG/KT/KT) (MB)    (MI)
HARRISON CRIB    0200            80  240/ 10/ 14   N/A
BURNHAM HARBOR   0200            80  220/  5/  9   N/A
CALUMET HARBOR   0200            80  230/  4/  7 1011.6R
BURNS HARBOR     NOT AVBL
MICHIGAN CITY    0200            78  170/  7/  8   N/A
$$

ABBREVIATIONS USED IN REMARKS
   TC - TEMPERATURE IN CELSIUS
  WCI - WIND CHILL INDEX
   HX - HEAT INDEX
  VSB - VISIBILITY
$$



USA.gov is the U.S. government's official web portal to all federal, state and local government web resources and services.